Location: An Tulaigh
(53.1928°N, 8.1647°W)
Time: 00:09:31
(UTC+00:00)

Meteor 1-14 Rocket - Pass Details

Date: 15 May 2026
Orbit: 832 x 918 km, 81.3° (Epoch: 9 June)

Event Time Altitude Azimuth Distance (km) Brightness Sun altitude
Rises 23:26:05 0° 346° (NNW) 3,409 9.2 -16.5°
Reaches altitude 10° 23:28:31 10° 346° (NNW) 2,463 8.0 -16.6°
Maximum altitude 23:34:06 87° 257° (WSW) 842 4.1 -16.8°
Enters shadow 23:37:08 28° 171° (S) 1,519 4.9 -16.9°
